| time (UTC) | temp F | wind direction | speed MPH | gust MPH | rain 1hr in | rain 24hr in | rain mn in | humidity % | barometer mb |
| 20260902182452 | 84 | 245 | 5.0 | 7.0 | 0.00 | 0.00 | 0.01 | 74 | 974.4 |
| 20260902182357 | 84 | 245 | 5.0 | 7.0 | 0.00 | 0.00 | 0.01 | 74 | 974.4 |
| 20260902181720 | 84 | 218 | 6.0 | 10.0 | 0.00 | 0.00 | 0.01 | 74 | 974.4 |
| 20260902181039 | 84 | 203 | 6.0 | 5.0 | 0.00 | 0.00 | 0.01 | 75 | 974.4 |
| 20260902180402 | 84 | 165 | 7.0 | 6.0 | 0.00 | 0.00 | 0.01 | 74 | 974.8 |
| 20260902175722 | 83 | 219 | 4.0 | 0.0 | 0.00 | 0.00 | 0.01 | 77 | 974.8 |
| 20260902175044 | 83 | 0 | 0.0 | 0.0 | 0.00 | 0.00 | 0.01 | 77 | 974.8 |
| 20260902174452 | 83 | 0 | 1.0 | 0.0 | 0.00 | 0.00 | 0.01 | 74 | 975.1 |
| 20260902174404 | 83 | 0 | 1.0 | 0.0 | 0.00 | 0.00 | 0.01 | 74 | 975.1 |
| 20260902173808 | 84 | 249 | 0.0 | 0.0 | 0.00 | 0.00 | 0.01 | 75 | 975.1 |
| 20260902173727 | 84 | 249 | 0.0 | 0.0 | 0.00 | 0.00 | 0.01 | 75 | 975.1 |
| 20260902173122 | 83 | 359 | 3.0 | 3.0 | 0.00 | 0.00 | 0.01 | 74 | 974.9 |
| 20260902173046 | 83 | 359 | 3.0 | 3.0 | 0.00 | 0.00 | 0.01 | 74 | 974.9 |
| 20260902172409 | 83 | 177 | 7.0 | 7.0 | 0.00 | 0.00 | 0.01 | 75 | 974.8 |
| 20260902171728 | 83 | 359 | 3.0 | 0.0 | 0.00 | 0.00 | 0.01 | 75 | 974.8 |
| 20260902171051 | 83 | 166 | 0.0 | 8.0 | 0.00 | 0.00 | 0.01 | 74 | 974.8 |
| 20260902170411 | 83 | 359 | 6.0 | 6.0 | 0.00 | 0.00 | 0.01 | 74 | 975.1 |
| 20260902165821 | 82 | 231 | 5.0 | 6.0 | 0.00 | 0.00 | 0.01 | 74 | 975.0 |
| 20260902165734 | 82 | 231 | 5.0 | 6.0 | 0.00 | 0.00 | 0.01 | 74 | 975.0 |
| 20260902165053 | 82 | 236 | 5.0 | 5.0 | 0.00 | 0.00 | 0.01 | 73 | 975.2 |
| 20260902164447 | 82 | 3 | 0.0 | 7.0 | 0.00 | 0.00 | 0.01 | 75 | 975.1 |
| 20260902164416 | 82 | 3 | 0.0 | 7.0 | 0.00 | 0.00 | 0.01 | 75 | 975.1 |
| 20260902163833 | 82 | 359 | 0.0 | 0.0 | 0.00 | 0.00 | 0.01 | 78 | 975.1 |
| 20260902163735 | 82 | 359 | 0.0 | 0.0 | 0.00 | 0.00 | 0.01 | 78 | 975.1 |
| 20260902163142 | 82 | 221 | 0.0 | 0.0 | 0.00 | 0.00 | 0.01 | 78 | 975.2 |
| 20260902163058 | 82 | 221 | 0.0 | 0.0 | 0.00 | 0.00 | 0.01 | 78 | 975.2 |
| 20260902162417 | 82 | 221 | 0.0 | 0.0 | 0.00 | 0.00 | 0.01 | 78 | 975.2 |
| 20260902161740 | 81 | 221 | 0.0 | 0.0 | 0.00 | 0.00 | 0.01 | 78 | 975.0 |
| 20260902161142 | 81 | 221 | 0.0 | 0.0 | 0.00 | 0.00 | 0.01 | 78 | 975.1 |
| 20260902161100 | 81 | 221 | 0.0 | 0.0 | 0.00 | 0.00 | 0.01 | 78 | 975.1 |
| 20260902155742 | 81 | 156 | 1.0 | 0.0 | 0.00 | 0.00 | 0.01 | 79 | 975.2 |
| 20260902153107 | 81 | 128 | 3.0 | 0.0 | 0.00 | 0.00 | 0.01 | 78 | 974.9 |
| 20260902151749 | 81 | 174 | 5.0 | 6.0 | 0.00 | 0.00 | 0.01 | 75 | 974.7 |
| 20260902151112 | 81 | 117 | 6.0 | 3.0 | 0.00 | 0.00 | 0.01 | 74 | 974.7 |
| 20260902150432 | 81 | 60 | 1.0 | 0.0 | 0.00 | 0.00 | 0.01 | 74 | 974.8 |
| 20260902145114 | 81 | 129 | 1.0 | 3.0 | 0.00 | 0.00 | 0.01 | 76 | 975.0 |
| 20260902144437 | 80 | 41 | 0.0 | 0.0 | 0.00 | 0.00 | 0.01 | 78 | 975.2 |
| 20260902143120 | 79 | 91 | 0.0 | 0.0 | 0.00 | 0.00 | 0.01 | 83 | 975.5 |
| 20260902142439 | 78 | 72 | 0.0 | 0.0 | 0.00 | 0.00 | 0.01 | 85 | 975.5 |
| 20260902141802 | 78 | 84 | 3.0 | 3.0 | 0.00 | 0.00 | 0.01 | 88 | 975.7 |
| 20260902135804 | 76 | 359 | 0.0 | 0.0 | 0.00 | 0.00 | 0.01 | 94 | 976.2 |
| 20260902135127 | 75 | 27 | 6.0 | 6.0 | 0.00 | 0.00 | 0.01 | 95 | 976.4 |
| 20260902133810 | 74 | 328 | 5.0 | 7.0 | 0.00 | 0.00 | 0.01 | 100 | 976.7 |
| 20260902133130 | 74 | 3 | 5.0 | 7.0 | 0.00 | 0.00 | 0.01 | 100 | 976.9 |
| 20260902132452 | 73 | 336 | 6.0 | 5.0 | 0.00 | 0.00 | 0.01 | 100 | 977.0 |
| 20260902131812 | 73 | 8 | 7.0 | 9.0 | 0.00 | 0.00 | 0.01 | 100 | 977.2 |
| 20260902131135 | 73 | 335 | 4.0 | 4.0 | 0.00 | 0.00 | 0.01 | 100 | 977.3 |
| 20260902130455 | 73 | 3 | 3.0 | 4.0 | 0.00 | 0.00 | 0.01 | 100 | 977.5 |
| 20260902125818 | 73 | 322 | 6.0 | 6.0 | 0.00 | 0.00 | 0.01 | 100 | 977.6 |
| 20260902124500 | 73 | 222 | 4.0 | 2.0 | 0.00 | 0.00 | 0.01 | 100 | 977.4 |
| 20260902121144 | 73 | 169 | 0.0 | 0.0 | 0.00 | 0.00 | 0.01 | 100 | 976.4 |
| 20260902113151 | 72 | 179 | 3.0 | 1.0 | 0.00 | 0.00 | 0.01 | 100 | 976.7 |
| 20260902112514 | 72 | 173 | 0.0 | 0.0 | 0.00 | 0.00 | 0.01 | 100 | 976.6 |
| 20260902110516 | 72 | 173 | 0.0 | 0.0 | 0.00 | 0.00 | 0.01 | 100 | 976.4 |
| 20260902105841 | 72 | 173 | 0.0 | 0.0 | 0.00 | 0.00 | 0.01 | 100 | 976.3 |
| 20260902105200 | 72 | 173 | 0.0 | 0.0 | 0.00 | 0.00 | 0.01 | 100 | 976.3 |
| 20260902104523 | 72 | 173 | 0.0 | 0.0 | 0.00 | 0.00 | 0.01 | 100 | 976.3 |
| 20260902102524 | 72 | 173 | 0.0 | 0.0 | 0.00 | 0.00 | 0.01 | 100 | 976.2 |
| 20260902095850 | 73 | 173 | 0.0 | 0.0 | 0.01 | 0.00 | 0.01 | 100 | 976.4 |
| 20260902095213 | 73 | 173 | 0.0 | 0.0 | 0.01 | 0.00 | 0.01 | 100 | 976.4 |
| 20260902093856 | 73 | 173 | 0.0 | 0.0 | 0.01 | 0.00 | 0.01 | 100 | 976.4 |
| 20260902092538 | 73 | 173 | 0.0 | 0.0 | 0.01 | 0.00 | 0.01 | 100 | 976.4 |
| 20260902091856 | 73 | 173 | 0.0 | 0.0 | 0.01 | 0.00 | 0.01 | 100 | 976.6 |
| 20260902090540 | 73 | 173 | 0.0 | 0.0 | 0.01 | 0.00 | 0.01 | 100 | 976.6 |
| 20260902085221 | 74 | 173 | 0.0 | 0.0 | 0.00 | 0.00 | 0.01 | 100 | 976.5 |
| 20260902084546 | 74 | 173 | 0.0 | 0.0 | 0.00 | 0.00 | 0.01 | 100 | 976.3 |
| 20260902083905 | 74 | 173 | 0.0 | 0.0 | 0.00 | 0.00 | 0.01 | 100 | 976.1 |
| 20260902083228 | 75 | 173 | 0.0 | 0.0 | 0.00 | 0.00 | 0.00 | 100 | 976.2 |
| 20260902082548 | 75 | 173 | 0.0 | 0.0 | 0.00 | 0.00 | 0.00 | 100 | 976.5 |
| 20260902081911 | 75 | 173 | 0.0 | 0.0 | 0.00 | 0.00 | 0.00 | 100 | 976.5 |
| 20260902075913 | 75 | 173 | 0.0 | 0.0 | 0.00 | 0.00 | 0.00 | 100 | 976.0 |
| 20260902074555 | 74 | 173 | 0.0 | 0.0 | 0.00 | 0.00 | 0.00 | 100 | 975.8 |
| 20260902073918 | 74 | 173 | 0.0 | 0.0 | 0.00 | 0.00 | 0.00 | 100 | 976.0 |
| 20260902073238 | 74 | 173 | 0.0 | 0.0 | 0.00 | 0.00 | 0.00 | 100 | 976.2 |
| 20260902072601 | 74 | 173 | 0.0 | 0.0 | 0.00 | 0.00 | 0.00 | 100 | 976.2 |
| 20260902071920 | 74 | 173 | 0.0 | 0.0 | 0.00 | 0.00 | 0.00 | 100 | 976.2 |
| 20260902071244 | 74 | 173 | 0.0 | 0.0 | 0.00 | 0.00 | 0.00 | 100 | 976.2 |
| 20260902070603 | 74 | 173 | 0.0 | 0.0 | 0.00 | 0.00 | 0.00 | 100 | 976.2 |
| 20260902065926 | 74 | 173 | 0.0 | 0.0 | 0.00 | 0.00 | 0.00 | 100 | 976.2 |
| 20260902064608 | 74 | 173 | 0.0 | 0.0 | 0.00 | 0.00 | 0.00 | 100 | 976.1 |
| 20260902064148 | 74 | 173 | 0.0 | 0.0 | 0.00 | 0.00 | 0.00 | 100 | 976.1 |
| 20260902063927 | 74 | 173 | 0.0 | 0.0 | 0.00 | 0.00 | 0.00 | 100 | 976.1 |
| 20260902063250 | 74 | 173 | 0.0 | 0.0 | 0.00 | 0.00 | 0.00 | 100 | 976.2 |
| 20260902062610 | 74 | 173 | 0.0 | 0.0 | 0.00 | 0.00 | 0.00 | 100 | 976.2 |
| 20260902061436 | 74 | 173 | 0.0 | 0.0 | 0.00 | 0.00 | 0.00 | 100 | 976.2 |
| 20260902061252 | 74 | 173 | 0.0 | 0.0 | 0.00 | 0.00 | 0.00 | 100 | 976.2 |
| 20260902060615 | 74 | 173 | 0.0 | 0.0 | 0.00 | 0.00 | 0.00 | 100 | 976.1 |
| 20260902055935 | 74 | 173 | 0.0 | 0.0 | 0.00 | 0.00 | 0.00 | 100 | 976.0 |
| 20260902054617 | 74 | 173 | 0.0 | 0.0 | 0.00 | 0.00 | 0.00 | 100 | 975.9 |
| 20260902053940 | 75 | 173 | 0.0 | 0.0 | 0.00 | 0.00 | 0.00 | 100 | 975.7 |
| 20260902053337 | 75 | 173 | 0.0 | 0.0 | 0.00 | 0.00 | 0.00 | 100 | 975.7 |
| 20260902053259 | 75 | 173 | 0.0 | 0.0 | 0.00 | 0.00 | 0.00 | 100 | 975.7 |
| 20260902052622 | 75 | 173 | 0.0 | 0.0 | 0.00 | 0.00 | 0.00 | 100 | 975.8 |
| 20260902051942 | 75 | 173 | 0.0 | 0.0 | 0.00 | 0.00 | 0.00 | 100 | 975.9 |
| 20260902051305 | 75 | 173 | 0.0 | 0.0 | 0.00 | 0.00 | 0.00 | 100 | 975.8 |
| 20260902050624 | 75 | 173 | 0.0 | 0.0 | 0.00 | 0.00 | 0.00 | 100 | 975.8 |
| 20260902045306 | 75 | 173 | 0.0 | 0.0 | 0.00 | 0.00 | 0.00 | 100 | 975.7 |
| 20260902044629 | 75 | 173 | 0.0 | 0.0 | 0.00 | 0.00 | 0.00 | 100 | 975.8 |
| 20260902044142 | 75 | 173 | 0.0 | 0.0 | 0.00 | 0.00 | 0.00 | 100 | 976.0 |
| 20260902043949 | 75 | 173 | 0.0 | 0.0 | 0.00 | 0.00 | 0.00 | 100 | 976.0 |
| 20260902042631 | 75 | 173 | 0.0 | 0.0 | 0.00 | 0.00 | 0.00 | 100 | 976.1 |
| 20260902040635 | 75 | 173 | 0.0 | 0.0 | 0.00 | 0.00 | 0.00 | 100 | 975.9 |
| 20260902035954 | 75 | 173 | 0.0 | 0.0 | 0.00 | 0.00 | 0.00 | 100 | 975.7 |
| 20260902035317 | 76 | 173 | 0.0 | 0.0 | 0.00 | 0.03 | 0.00 | 100 | 975.7 |
| 20260902034637 | 76 | 173 | 0.0 | 0.0 | 0.00 | 0.03 | 0.00 | 100 | 975.8 |
| 20260902034000 | 76 | 173 | 0.0 | 0.0 | 0.00 | 0.03 | 0.00 | 100 | 976.0 |
| 20260902032118 | 76 | 173 | 0.0 | 0.0 | 0.00 | 0.03 | 0.00 | 100 | 975.9 |
| 20260902032001 | 76 | 173 | 0.0 | 0.0 | 0.00 | 0.03 | 0.00 | 100 | 975.9 |
| 20260902031444 | 76 | 173 | 0.0 | 0.0 | 0.00 | 0.03 | 0.00 | 100 | 976.1 |
| 20260902031324 | 76 | 173 | 0.0 | 0.0 | 0.00 | 0.03 | 0.00 | 100 | 976.1 |
| 20260902030644 | 76 | 173 | 0.0 | 0.0 | 0.00 | 0.03 | 0.00 | 100 | 976.1 |
| 20260902030006 | 76 | 173 | 0.0 | 0.0 | 0.00 | 0.03 | 0.00 | 100 | 976.1 |
| 20260902025441 | 76 | 173 | 0.0 | 0.0 | 0.00 | 0.03 | 0.00 | 100 | 976.2 |
| 20260902025327 | 76 | 173 | 0.0 | 0.0 | 0.00 | 0.03 | 0.00 | 100 | 976.2 |
| 20260902024649 | 77 | 173 | 0.0 | 0.0 | 0.00 | 0.03 | 0.00 | 100 | 976.2 |
| 20260902023548 | 77 | 173 | 0.0 | 0.0 | 0.00 | 0.03 | 0.00 | 100 | 976.0 |
| 20260902023332 | 77 | 173 | 0.0 | 0.0 | 0.00 | 0.03 | 0.00 | 100 | 976.0 |
| 20260902022802 | 77 | 173 | 0.0 | 0.0 | 0.00 | 0.03 | 0.00 | 100 | 976.1 |
| 20260902022651 | 77 | 173 | 0.0 | 0.0 | 0.00 | 0.03 | 0.00 | 100 | 976.1 |
| 20260902022013 | 77 | 173 | 0.0 | 0.0 | 0.00 | 0.03 | 0.00 | 100 | 976.0 |
| 20260902021334 | 77 | 173 | 0.0 | 0.0 | 0.00 | 0.03 | 0.00 | 100 | 976.2 |
| 20260902020016 | 78 | 173 | 0.0 | 0.0 | 0.00 | 0.03 | 0.00 | 100 | 976.0 |
| 20260902015339 | 78 | 173 | 0.0 | 0.0 | 0.00 | 0.03 | 0.00 | 100 | 976.0 |
| 20260902014658 | 78 | 173 | 0.0 | 0.0 | 0.00 | 0.03 | 0.00 | 100 | 976.0 |
| 20260902014021 | 78 | 173 | 0.0 | 0.0 | 0.00 | 0.03 | 0.00 | 100 | 975.9 |
| 20260902012703 | 78 | 173 | 0.0 | 0.0 | 0.00 | 0.03 | 0.00 | 100 | 976.0 |
| 20260902011345 | 79 | 173 | 0.0 | 0.0 | 0.00 | 0.03 | 0.00 | 100 | 975.8 |
| 20260902010028 | 79 | 173 | 0.0 | 0.0 | 0.00 | 0.03 | 0.00 | 100 | 975.4 |
| 20260902005347 | 79 | 173 | 0.0 | 0.0 | 0.00 | 0.03 | 0.00 | 100 | 975.3 |
| 20260902004808 | 79 | 173 | 0.0 | 0.0 | 0.00 | 0.03 | 0.00 | 99 | 975.4 |
| 20260902004710 | 79 | 173 | 0.0 | 0.0 | 0.00 | 0.03 | 0.00 | 99 | 975.4 |
| 20260902003533 | 80 | 173 | 0.0 | 0.0 | 0.00 | 0.03 | 0.00 | 98 | 975.4 |
| 20260902003352 | 80 | 173 | 0.0 | 0.0 | 0.00 | 0.03 | 0.00 | 98 | 975.4 |
| 20260902002155 | 80 | 217 | 3.0 | 3.0 | 0.00 | 0.03 | 0.00 | 98 | 975.5 |
| 20260902002034 | 80 | 217 | 3.0 | 3.0 | 0.00 | 0.03 | 0.00 | 98 | 975.5 |
| 20260902000859 | 81 | 191 | 6.0 | 6.0 | 0.00 | 0.03 | 0.00 | 96 | 975.3 |
| 20260902000716 | 81 | 191 | 6.0 | 6.0 | 0.00 | 0.03 | 0.00 | 96 | 975.3 |
| 20260902000149 | 81 | 146 | 5.0 | 1.0 | 0.00 | 0.03 | 0.00 | 96 | 975.2 |
| 20260902000035 | 81 | 146 | 5.0 | 1.0 | 0.00 | 0.03 | 0.00 | 96 | 975.2 |
| 20260901235358 | 81 | 198 | 3.0 | 0.0 | 0.00 | 0.03 | 0.00 | 95 | 975.1 |
| 20260901234717 | 82 | 183 | 4.0 | 3.0 | 0.00 | 0.03 | 0.00 | 94 | 975.1 |
| 20260901234251 | 82 | 245 | 6.0 | 6.0 | 0.00 | 0.03 | 0.00 | 92 | 975.0 |
| 20260901234040 | 82 | 245 | 6.0 | 6.0 | 0.00 | 0.03 | 0.00 | 92 | 975.0 |
| 20260901233639 | 83 | 198 | 5.0 | 3.0 | 0.00 | 0.03 | 0.00 | 91 | 974.8 |
| 20260901233359 | 83 | 198 | 5.0 | 3.0 | 0.00 | 0.03 | 0.00 | 91 | 974.8 |
| 20260901232722 | 83 | 208 | 4.0 | 5.0 | 0.00 | 0.03 | 0.00 | 90 | 974.8 |
| 20260901232041 | 83 | 218 | 5.0 | 4.0 | 0.00 | 0.03 | 0.00 | 90 | 974.8 |
| 20260901231404 | 83 | 198 | 6.0 | 2.0 | 0.00 | 0.03 | 0.00 | 88 | 974.7 |
| 20260901225613 | 84 | 205 | 4.0 | 3.0 | 0.00 | 0.03 | 0.00 | 86 | 974.6 |
| 20260901225405 | 84 | 205 | 4.0 | 3.0 | 0.00 | 0.03 | 0.00 | 86 | 974.6 |
| 20260901224959 | 84 | 218 | 2.0 | 6.0 | 0.00 | 0.03 | 0.00 | 85 | 974.5 |
| 20260901224728 | 84 | 218 | 2.0 | 6.0 | 0.00 | 0.03 | 0.00 | 85 | 974.5 |
| 20260901224243 | 84 | 245 | 6.0 | 3.0 | 0.00 | 0.03 | 0.00 | 82 | 974.5 |
| 20260901224047 | 84 | 245 | 6.0 | 3.0 | 0.00 | 0.03 | 0.00 | 82 | 974.5 |
| 20260901223805 | 84 | 270 | 6.0 | 5.0 | 0.00 | 0.03 | 0.00 | 83 | 974.4 |
| 20260901223410 | 84 | 270 | 6.0 | 5.0 | 0.00 | 0.03 | 0.00 | 83 | 974.4 |
| 20260901223001 | 85 | 221 | 4.0 | 3.0 | 0.00 | 0.03 | 0.00 | 81 | 974.4 |
| 20260901222729 | 85 | 221 | 4.0 | 3.0 | 0.00 | 0.03 | 0.00 | 81 | 974.4 |
| 20260901222222 | 85 | 203 | 5.0 | 7.0 | 0.00 | 0.03 | 0.00 | 78 | 974.5 |
| 20260901222052 | 85 | 203 | 5.0 | 7.0 | 0.00 | 0.03 | 0.00 | 78 | 974.5 |
| 20260901221411 | 85 | 180 | 5.0 | 0.0 | 0.00 | 0.03 | 0.00 | 78 | 974.5 |
| 20260901221007 | 86 | 212 | 5.0 | 3.0 | 0.00 | 0.03 | 0.00 | 76 | 974.5 |
| 20260901220734 | 86 | 212 | 5.0 | 3.0 | 0.00 | 0.03 | 0.00 | 76 | 974.5 |
| 20260901215650 | 86 | 170 | 4.0 | 0.0 | 0.00 | 0.03 | 0.00 | 77 | 974.2 |
| 20260901215416 | 86 | 170 | 4.0 | 0.0 | 0.00 | 0.03 | 0.00 | 77 | 974.2 |
| 20260901215121 | 86 | 214 | 7.0 | 6.0 | 0.00 | 0.03 | 0.00 | 77 | 974.3 |
| 20260901214735 | 86 | 214 | 7.0 | 6.0 | 0.00 | 0.03 | 0.00 | 77 | 974.3 |
| 20260901214243 | 86 | 212 | 8.0 | 8.0 | 0.00 | 0.03 | 0.00 | 76 | 974.2 |
| 20260901214058 | 86 | 212 | 8.0 | 8.0 | 0.00 | 0.03 | 0.00 | 76 | 974.2 |
| 20260901213417 | 87 | 210 | 8.0 | 7.0 | 0.00 | 0.03 | 0.00 | 76 | 974.2 |
| 20260901213038 | 87 | 210 | 4.0 | 13.0 | 0.00 | 0.03 | 0.00 | 76 | 974.0 |
| 20260901212740 | 87 | 210 | 4.0 | 13.0 | 0.00 | 0.03 | 0.00 | 76 | 974.0 |
| 20260901212634 | 87 | 183 | 5.0 | 6.0 | 0.00 | 0.03 | 0.00 | 73 | 974.0 |
| 20260901212059 | 87 | 183 | 5.0 | 6.0 | 0.00 | 0.03 | 0.00 | 73 | 974.0 |
| 20260901211657 | 87 | 190 | 6.0 | 7.0 | 0.00 | 0.03 | 0.00 | 71 | 974.0 |
| 20260901211422 | 87 | 190 | 6.0 | 7.0 | 0.00 | 0.03 | 0.00 | 71 | 974.0 |
| 20260901210933 | 87 | 167 | 5.0 | 5.0 | 0.00 | 0.03 | 0.00 | 71 | 973.8 |
| 20260901210741 | 87 | 167 | 5.0 | 5.0 | 0.00 | 0.03 | 0.00 | 71 | 973.8 |
| 20260901210001 | 88 | 219 | 7.0 | 5.0 | 0.00 | 0.03 | 0.00 | 67 | 974.0 |
| 20260901205424 | 88 | 219 | 7.0 | 5.0 | 0.00 | 0.03 | 0.00 | 67 | 974.0 |
| 20260901204746 | 88 | 165 | 9.0 | 9.0 | 0.00 | 0.03 | 0.00 | 66 | 973.8 |
| 20260901204244 | 88 | 231 | 7.0 | 7.0 | 0.00 | 0.03 | 0.00 | 65 | 973.9 |
| 20260901204106 | 88 | 231 | 7.0 | 7.0 | 0.00 | 0.03 | 0.00 | 65 | 973.9 |
| 20260901203659 | 88 | 245 | 7.0 | 6.0 | 0.00 | 0.03 | 0.00 | 65 | 973.9 |
| 20260901203428 | 88 | 245 | 7.0 | 6.0 | 0.00 | 0.03 | 0.00 | 65 | 973.9 |
| 20260901202748 | 88 | 242 | 5.0 | 0.0 | 0.00 | 0.03 | 0.00 | 66 | 973.8 |
| 20260901202110 | 88 | 222 | 5.0 | 4.0 | 0.00 | 0.03 | 0.00 | 66 | 973.8 |
| 20260901201430 | 89 | 197 | 7.0 | 11.0 | 0.00 | 0.03 | 0.00 | 66 | 973.9 |
| 20260901200753 | 89 | 221 | 8.0 | 11.0 | 0.00 | 0.03 | 0.00 | 65 | 974.0 |
| 20260901200112 | 89 | 200 | 7.0 | 3.0 | 0.00 | 0.03 | 0.00 | 66 | 974.0 |
| 20260901195435 | 89 | 195 | 7.0 | 3.0 | 0.00 | 0.03 | 0.00 | 65 | 974.0 |
| 20260901194754 | 89 | 158 | 5.0 | 5.0 | 0.00 | 0.03 | 0.00 | 68 | 973.9 |
| 20260901194117 | 89 | 194 | 2.0 | 4.0 | 0.00 | 0.03 | 0.00 | 66 | 974.0 |
| 20260901193436 | 89 | 219 | 7.0 | 6.0 | 0.00 | 0.03 | 0.00 | 67 | 974.2 |
| 20260901192759 | 88 | 179 | 2.0 | 7.0 | 0.00 | 0.03 | 0.00 | 67 | 974.4 |
| 20260901192118 | 88 | 259 | 4.0 | 4.0 | 0.00 | 0.03 | 0.00 | 72 | 974.4 |
| 20260901191441 | 87 | 284 | 9.0 | 5.0 | 0.00 | 0.03 | 0.00 | 71 | 974.5 |
| 20260901190801 | 87 | 239 | 7.0 | 4.0 | 0.00 | 0.03 | 0.00 | 73 | 974.5 |
| 20260901190123 | 87 | 243 | 5.0 | 0.0 | 0.00 | 0.03 | 0.00 | 74 | 974.4 |
| 20260901185443 | 87 | 207 | 6.0 | 2.0 | 0.00 | 0.03 | 0.00 | 72 | 974.5 |
| 20260901184806 | 88 | 245 | 4.0 | 6.0 | 0.00 | 0.03 | 0.00 | 71 | 974.5 |
| 20260901183448 | 87 | 160 | 0.0 | 9.0 | 0.00 | 0.03 | 0.00 | 77 | 974.6 |
| 20260901182807 | 86 | 240 | 7.0 | 3.0 | 0.00 | 0.03 | 0.00 | 77 | 974.6 |